This is the latest recevied weather packets stored in our database for station/object W4UWO. If no packets are shown the sender has not sent any weather packets the latest 10 day(s).
| Time | Temp. | Humidity | Pressure | Rain* | Wind** | Luminosity | Snow |
|---|---|---|---|---|---|---|---|
| 1788366556 | 35.56° C | 45% | 1020.9 hPa | 0 mm | - | 764 W/m² | - |
| 1788366252 | 36.11° C | 42% | 1021 hPa | 0 mm | - | 758 W/m² | - |
| 1788365946 | 35.56° C | 42% | 1020.9 hPa | 0 mm | - | 748 W/m² | - |
| 1788365641 | 35.56° C | 43% | 1021.1 hPa | 0 mm | - | 735 W/m² | - |
| 1788365337 | 35° C | 46% | 1021.3 hPa | 0 mm | - | 731 W/m² | - |
| 1788365032 | 34.44° C | 47% | 1021.1 hPa | 0 mm | - | 714 W/m² | - |
| 1788364730 | 34.44° C | 48% | 1021.2 hPa | 0 mm | - | 708 W/m² | - |
| 1788364429 | 34.44° C | 49% | 1021.3 hPa | 0 mm | - | 695 W/m² | - |
| 1788364125 | 33.89° C | 49% | 1021 hPa | 0 mm | - | 685 W/m² | - |
| 1788363820 | 34.44° C | 49% | 1021.1 hPa | 0 mm | - | 679 W/m² | - |
| 1788363519 | 33.89° C | 51% | 1021 hPa | 0 mm | - | 672 W/m² | - |
| 1788363218 | 33.89° C | 51% | 1021.3 hPa | 0 mm | - | 656 W/m² | - |
| 1788362914 | 33.89° C | 53% | 1021.3 hPa | 0 mm | - | 642 W/m² | - |
| 1788362610 | 33.89° C | 51% | 1021.2 hPa | 0 mm | - | 625 W/m² | - |
| 1788362305 | 33.89° C | 52% | 1021.3 hPa | 0 mm | - | 621 W/m² | - |
| 1788362000 | 34.44° C | 51% | 1021.1 hPa | 0 mm | - | 609 W/m² | - |
| 1788361695 | 33.89° C | 51% | 1021.3 hPa | 0 mm | - | 593 W/m² | - |
| 1788361392 | 33.33° C | 52% | 1021.3 hPa | 0 mm | - | 583 W/m² | - |
| 1788361091 | 32.78° C | 53% | 1021.3 hPa | 0 mm | - | 567 W/m² | - |
| 1788360786 | 32.78° C | 55% | 1021.2 hPa | 0 mm | - | 538 W/m² | - |
| 1788360482 | 32.22° C | 55% | 1021.4 hPa | 0 mm | - | 522 W/m² | - |
| 1788360177 | 31.67° C | 58% | 1021.2 hPa | 0 mm | - | 507 W/m² | - |
| 1788359872 | 31.67° C | 59% | 1021.2 hPa | 0 mm | - | 496 W/m² | - |
| 1788359567 | 31.67° C | 60% | 1021.3 hPa | 0 mm | - | 477 W/m² | - |
| 1788359263 | 31.67° C | 59% | 1021.2 hPa | 0 mm | - | 460 W/m² | - |
* Rain latest hour (hover to see other rain measurements)
** Current wind speed in m/s (hover to see current wind gust speed)